Hourly Data Report for April 01, 2004

SHERBROOKE A
QUEBEC

45°26'00.000" N
71°41'00.000" W
241.40 m
7028124
71610
YSC

Download Data

Hourly Data (April 2004)
Hourly Data Report for April 1, 2004
TIME
LST
Temp Definition
°C
Dew Point Definition
°C
Rel Hum Definition
%
Precip. Amount Definition
mm

Wind Dir Definition
10's deg

Wind Spd Definition
km/h
Visibility Definition
km
Stn Press Definition
kPa
Hmdx Definition


Wind Chill Definition


Weather Definition


00:00 4.5 3.8 95   5 9 6.4 98.57      
01:00 4.8 4.0 95   4 13 5.6 98.54     Rain
02:00 4.7 3.9 95   6 9 5.6 98.52     Rain
03:00 4.3 3.6 95   7 7 4.8 98.51     Rain
04:00 4.1 3.3 95   5 9 6.4 98.49     Rain
05:00 3.7 2.9 94   5 13 5.6 98.49     Rain
06:00 3.3 2.4 94   5 15 6.4 98.51      
07:00 3.7 2.6 93   4 17 12.9 98.55      
08:00 4.4 3.4 93   5 15 9.7 98.60     Drizzle, Fog
09:00 4.9 3.8 93   5 17 12.9 98.63     Drizzle
10:00 6.3 4.2 86   6 17 24.1 98.61     Cloudy
11:00 6.8 3.7 81   7 17 24.1 98.68     Cloudy
12:00 7.9 2.9 71   8 20 24.1 98.67     Cloudy
13:00 8.2 2.7 68   7 22 24.1 98.63     Rain Showers
14:00 8.8 2.3 64   9 22 24.1 98.58     Mostly Cloudy
15:00 9.2 2.0 61   8 22 24.1 98.54     Cloudy
16:00 8.5 2.5 66   7 13 24.1 98.56     Cloudy
17:00 8.4 1.6 62   7 11 24.1 98.55     Cloudy
18:00 7.7 -0.5 56   6 11 15.0 98.56      
19:00 7.0 -1.0 57   7 9 15.0 98.60      
20:00 6.7 -1.9 54   7 15 15.0 98.58      
21:00 5.8 -1.3 60   6 13 15.0 98.58     Rain
22:00 5.0 -1.1 65   6 15 15.0 98.62      
23:00 4.9 -2.0 61   6 17 15.0 98.56      

Notes on Data Quality.

Legend

  • E = Estimated
  • M = Missing
  • NA = Not Available*
  • [empty] = Indicates an unobserved value
Date modified: